Tracking 18793 objects as of 24-September-2017
HD Live streaming from Space Station
objects crossing your sky now

LES 5

Track LES 5 now!
LES 5 is classified as:


NORAD ID: 2866
Int'l Code: 1967-066E
Perigee: 33,180.8 km
Apogee: 33,635.7 km
Inclination: 4.9 °
Period: 1,316.0 minutes
Semi major axis: 39779 km
RCS: 2.6184 m2 (large)
Launch date: July 1, 1967
Source: United States (US)
Launch site: AIR FORCE EASTERN TEST RANGE (AFETR)
aabbcc
Your satellite tracking list
Your tracking list is empty





NASA's NSSDC Master Catalog

Two Line Element Set (TLE):
1 02866U 67066E   17266.17219277 -.00000101  00000-0  00000+0 0  9997
2 02866   4.8973 292.6305 0057185 315.0266 202.0317  1.09425311 96120
Source of the keplerian elements: AFSPC